Weather History for Norman, OK

Change the Weather History Date:

Sunday, November 6, 2011

  Actual Average Record
Temperature  
Mean Temperature 68 °F -  
Max Temperature 77 °F 63 °F 87 °F (1950)
Min Temperature 59 °F 42 °F 19 °F (1951)
Cooling Degree Days 3    
Growing Degree Days 18 (Base 50)    
Moisture  
Dew Point 54 °F    
Average Humidity 68    
Maximum Humidity 88    
Minimum Humidity 29    
Precipitation  
Precipitation 0.00 in - - ()
Sea Level Pressure  
Sea Level Pressure 29.92 in    
Wind  
Wind Speed 14 mph (South)    
Max Wind Speed 20 mph    
Max Gust Speed 24 mph    
Visibility 10 miles    
Events      
Averages and records for this station are not official NWS values.
T = Trace of Precipitation, MM = Missing Value Source: NWS Daily Summary

Daily Weather History Graph

Daily Weather History Graph

Search for Another Location

Airport:

Trip Planner

Search our weather history database for the weather conditions in past years. The results will help you decide how hot, cold, wet, or windy it might be!

Date:

Astronomy

Nov. 06, 2011 Rise Set
Actual Time 6:55 AM CST 5:30 PM CST
Civil Twilight 6:29 AM CST 5:57 PM CST
Nautical Twilight 5:59 AM CST 6:27 PM CST
Astronomical Twilight 5:29 AM CST 6:57 PM CST
Moon 3:09 PM CST (11/6) 3:10 AM CST (11/6)
Length of Visible Light 11h 27m
Length of Day
10h 34m
Waxing Gibbous, 86% of the Moon is Illuminated
Nov 6
Waxing Gibbous
Nov 10
Full
Nov 18
Last Quarter
Nov 25
New
Dec 2
First Quarter

Hourly Weather History & Observations

Time (CST) Temp. Dew Point Humidity Pressure Visibility Wind Dir Wind Speed Gust Speed Precip Events Conditions
12:15 AM 59.0 °F 44.6 °F 59% 29.83 in 10.0 mi SSE 19.6 mph 24.2 mph N/A   Clear
12:35 AM 59.0 °F 46.4 °F 63% 29.84 in 10.0 mi SSE 15.0 mph 21.9 mph N/A   Clear
12:55 AM 59.0 °F 46.4 °F 63% 29.84 in 10.0 mi SSE 13.8 mph 19.6 mph N/A   Clear
1:15 AM 59.0 °F 46.4 °F 63% 29.84 in 10.0 mi SSE 16.1 mph - N/A   Mostly Cloudy
1:35 AM 59.0 °F 46.4 °F 63% 29.84 in 10.0 mi SSE 15.0 mph 21.9 mph N/A   Overcast
1:55 AM 59.0 °F 48.2 °F 67% 29.84 in 10.0 mi SSE 17.3 mph - N/A   Overcast
1:15 AM 59.0 °F 48.2 °F 67% 29.84 in 10.0 mi SSE 16.1 mph 23.0 mph N/A   Mostly Cloudy
1:35 AM 59.0 °F 48.2 °F 67% 29.84 in 10.0 mi SSE 13.8 mph - N/A   Mostly Cloudy
1:55 AM 59.0 °F 50.0 °F 72% 29.84 in 10.0 mi SSE 12.7 mph 19.6 mph N/A   Overcast
2:15 AM 59.0 °F 50.0 °F 72% 29.84 in 10.0 mi SSE 12.7 mph - N/A   Overcast
2:35 AM 59.0 °F 50.0 °F 72% 29.84 in 10.0 mi SSE 16.1 mph - N/A   Mostly Cloudy
2:55 AM 59.0 °F 51.8 °F 77% 29.84 in 10.0 mi SSE 15.0 mph - N/A   Scattered Clouds
3:15 AM 59.0 °F 51.8 °F 77% 29.85 in 10.0 mi SSE 13.8 mph - N/A   Clear
3:35 AM 59.0 °F 53.6 °F 82% 29.86 in 10.0 mi SSE 15.0 mph 19.6 mph N/A   Clear
3:55 AM 60.8 °F 53.6 °F 77% 29.87 in 10.0 mi SSE 12.7 mph - N/A   Clear
4:15 AM 59.0 °F 53.6 °F 82% 29.87 in 10.0 mi South 12.7 mph - N/A   Scattered Clouds
4:35 AM 60.8 °F 53.6 °F 77% 29.88 in 10.0 mi South 10.4 mph - N/A   Mostly Cloudy
4:55 AM 60.8 °F 53.6 °F 77% 29.89 in 10.0 mi SSW 11.5 mph - N/A   Overcast
5:15 AM 60.8 °F 55.4 °F 82% 29.89 in 10.0 mi South 13.8 mph 19.6 mph N/A   Overcast
5:55 AM 60.8 °F 55.4 °F 82% 29.90 in 10.0 mi South 13.8 mph - N/A   Mostly Cloudy
6:15 AM 60.8 °F 55.4 °F 82% 29.91 in 10.0 mi South 13.8 mph - N/A   Mostly Cloudy
6:35 AM 60.8 °F 55.4 °F 82% 29.92 in 10.0 mi SSE 11.5 mph - N/A   Mostly Cloudy
6:55 AM 60.8 °F 55.4 °F 82% 29.93 in 10.0 mi South 9.2 mph - N/A   Scattered Clouds
7:15 AM 60.8 °F 55.4 °F 82% 29.94 in 10.0 mi South 9.2 mph - N/A   Mostly Cloudy
7:35 AM 60.8 °F 55.4 °F 82% 29.94 in 10.0 mi South 9.2 mph - N/A   Scattered Clouds
7:55 AM 60.8 °F 57.2 °F 88% 29.95 in 10.0 mi South 10.4 mph - N/A   Scattered Clouds
8:15 AM 62.6 °F 57.2 °F 82% 29.96 in 10.0 mi South 12.7 mph - N/A   Clear
8:35 AM 64.4 °F 59.0 °F 83% 29.97 in 10.0 mi SSW 11.5 mph - N/A   Scattered Clouds
8:55 AM 64.4 °F 59.0 °F 83% 29.96 in 10.0 mi South 12.7 mph - N/A   Scattered Clouds
9:15 AM 64.4 °F 59.0 °F 83% 29.96 in 10.0 mi South 11.5 mph 19.6 mph N/A   Mostly Cloudy
9:35 AM 66.2 °F 59.0 °F 78% 29.97 in 10.0 mi South 16.1 mph 20.7 mph N/A   Mostly Cloudy
9:55 AM 69.8 °F 59.0 °F 68% 29.98 in 10.0 mi SSW 15.0 mph 18.4 mph N/A   Scattered Clouds
10:15 AM 68.0 °F 57.2 °F 68% 29.97 in 10.0 mi SSW 12.7 mph - N/A   Scattered Clouds
10:35 AM 69.8 °F 55.4 °F 60% 29.98 in 10.0 mi South 13.8 mph - N/A   Scattered Clouds
10:55 AM 71.6 °F 55.4 °F 57% 29.98 in 10.0 mi South 16.1 mph - N/A   Scattered Clouds
11:15 AM 71.6 °F 53.6 °F 53% 29.98 in 10.0 mi SSW 16.1 mph - N/A   Clear
11:35 AM 71.6 °F 51.8 °F 50% 29.97 in 10.0 mi SSW 16.1 mph 21.9 mph N/A   Clear
11:55 AM 73.4 °F 50.0 °F 44% 29.97 in 10.0 mi South 15.0 mph - N/A   Clear
12:15 PM 73.4 °F 50.0 °F 44% 29.96 in 10.0 mi SSW 16.1 mph 20.7 mph N/A   Clear
12:35 PM 73.4 °F 51.8 °F 47% 29.95 in 10.0 mi SSW 16.1 mph - N/A   Clear
12:55 PM 73.4 °F 51.8 °F 47% 29.94 in 10.0 mi South 11.5 mph - N/A   Clear
1:15 PM 75.2 °F 50.0 °F 41% 29.94 in 10.0 mi SSW 15.0 mph 19.6 mph N/A   Clear
1:35 PM 77.0 °F 46.4 °F 34% 29.93 in 10.0 mi SSW 15.0 mph 18.4 mph N/A   Clear
2:15 PM 77.0 °F 42.8 °F 29% 29.92 in 10.0 mi SSW 13.8 mph - N/A   Clear
2:35 PM 77.0 °F 42.8 °F 29% 29.93 in 10.0 mi South 15.0 mph - N/A   Clear
2:55 PM 77.0 °F 46.4 °F 34% 29.92 in 10.0 mi SSW 16.1 mph 20.7 mph N/A   Clear
3:15 PM 77.0 °F 46.4 °F 34% 29.92 in 10.0 mi SSW 16.1 mph - N/A   Clear
3:35 PM 77.0 °F 48.2 °F 36% 29.92 in 10.0 mi South 11.5 mph - N/A   Clear
3:55 PM 73.4 °F 59.0 °F 61% 29.93 in 10.0 mi SSE 12.7 mph 18.4 mph N/A   Scattered Clouds
4:15 PM 73.4 °F 60.8 °F 65% 29.93 in 10.0 mi South 12.7 mph - N/A   Scattered Clouds
4:35 PM 71.6 °F 60.8 °F 69% 29.93 in 10.0 mi SSE 12.7 mph - N/A   Clear
4:55 PM 71.6 °F 60.8 °F 69% 29.94 in 10.0 mi SSE 11.5 mph - N/A   Scattered Clouds
5:15 PM 69.8 °F 60.8 °F 73% 29.95 in 10.0 mi South 10.4 mph - N/A   Clear
5:35 PM 69.8 °F 60.8 °F 73% 29.95 in 10.0 mi South 9.2 mph - N/A   Clear
5:55 PM 68.0 °F 60.8 °F 78% 29.96 in 10.0 mi SSE 6.9 mph - N/A   Clear
6:15 PM 68.0 °F 60.8 °F 78% 29.97 in 10.0 mi SSE 6.9 mph - N/A   Clear
6:35 PM 64.4 °F 60.8 °F 88% 29.97 in 10.0 mi SSE 5.8 mph - N/A   Clear
6:55 PM 66.2 °F 60.8 °F 83% 29.98 in 10.0 mi SSE 6.9 mph - N/A   Clear
7:15 PM 64.4 °F 60.8 °F 88% 29.98 in 10.0 mi SSE 4.6 mph - N/A   Clear
7:35 PM 64.4 °F 60.8 °F 88% 29.99 in 10.0 mi Calm Calm - N/A   Scattered Clouds
7:55 PM 64.4 °F 60.8 °F 88% 29.99 in 10.0 mi Calm Calm - N/A   Overcast
8:15 PM 64.4 °F 60.8 °F 88% 29.99 in 10.0 mi Calm Calm - N/A   Overcast
8:35 PM 64.4 °F 60.8 °F 88% 29.99 in 10.0 mi Calm Calm - N/A   Mostly Cloudy
8:55 PM 62.6 °F 60.8 °F 94% 30.00 in 10.0 mi Calm Calm - N/A Thunderstorm Mostly Cloudy
9:15 PM 62.6 °F 60.8 °F 94% 30.00 in 10.0 mi Calm Calm - N/A Thunderstorm Overcast
9:35 PM 62.6 °F 60.8 °F 94% 30.00 in 7.0 mi North 3.5 mph - N/A Thunderstorm Mostly Cloudy
9:55 PM 62.6 °F 60.8 °F 94% 30.00 in 7.0 mi NE 3.5 mph - N/A Thunderstorm Overcast
10:15 PM 62.6 °F 60.8 °F 94% 30.00 in 10.0 mi NNE 3.5 mph - N/A Thunderstorm Mostly Cloudy
10:35 PM 62.6 °F 60.8 °F 94% 30.01 in 10.0 mi Calm Calm - N/A   Mostly Cloudy
10:55 PM 62.6 °F 60.8 °F 94% 30.00 in 10.0 mi Calm Calm - N/A   Overcast